STARLINK-31916, 59795

Orbit data source: Space-Track

STARLINK-31916, 59795 is a payload satellite owned by SpaceX/Seattle (US) in LEO that was launched on Sat, 18 May 2024 UTC via an FALCON 9 launch vehicle from the Air Force Eastern Test Range (AFETR). Payload-class satellites include a variety of spacecraft equipped with specific instruments for various scientific and technological missions. These include communications satellites like Starlink; space stations such as the ISS; scientific satellites like the Hubble; Earth observation satellites from companies like Planet Labs, Umbra, and HawkEye 360; GPS; miniature CubeSats for education and research; and military/defense satellites.

Loading next visibility...
Identifier
59795, 2024-093P
Orbit
LEO
Last TLE update
9 hours ago
Origin
Manufacturer
SpaceX/Seattle
Mission
Operational spacecraft
Bus & Motor
STARLINK V2M, Unknown motor
Mass
730 kg wet, ~700 kg dry
Launch date (UTC)
2024-05-18 (1 year ago)
Launch vehicle
FALCON 9
Launch site
Air Force Eastern Test Range (AFETR)
Object type
Payload
Rocket body
Debris
Shape & HBR
Unknown
Radar Cross Section
Large (>1 m²)

Expand to show TLE details & history

TLE from 9 hours ago
0 STARLINK-31916
1 59795U 24093P   25129.04299206  .00000352  00000-0  22299-4 0  9992
2 59795  43.0020 129.3765 0000728 273.2964  86.7805 15.27573869 56108
Epoch: 2025-05-09T01:01Z
Definitive object data (Epoch: 2025-05-09T01:01:54.513Z)
Latitude
Longitude
-113.20544°
Altitude
482.815 km
Speed
7.626 km/s
True Right ascension
08h 37m 30s
True Declination
0° 00' 00"
Sunlit
Object was in daylight at TLE epoch
Visualization TLE readout
Latitude
-1.02207°
Longitude
65.85146°
Altitude
483.017 km
Speed
7.626 km/s
Apparent Right ascension
23h 35m 34s
Apparent Declination
-42° 52' 54"
Sunlit
Object is in daylight
Visualization observer readout
Local Sidereal Time
17:49:29
Azimuth
126.964° SE
Elevation
-23.738°
Doppler factor
1
Orbital elements
Apogee altitude
485.512 km
Perigee altitude
484.513 km
Semi-major axis
6,863.149 km
Eccentricity
0.0000728
Inclination
43.002°
RAAN
129.3765°
Arg. of periapsis
273.2964°
True anomaly
86.78883°
Mean anomaly
86.7805°
Eccentric anomaly
86.78466°
Mean motion
3.81732 °/min
BSTAR
0.000022299
Orbital period
94.31 mins
Loading maneuver chart data...
Loading SW <> Apogee altitude chart data...
Loading historical data...
Loading historical data...
Loading historical data...
Loading historical data...
Loading historical data...
Loading historical data...
Loading historical data...

STARLINK-31916 Visibility forecast

Observer location: undefined°, undefined°

Span
Click to sort rows by Start time (UTC) header in descending order
Start Az.
Max El. time (UTC)
Max El. Az.
Max El.
End time (UTC)
End Az.
5 mins2025-05-10 02:19:07.126Z187.617° SSW2025-05-10 02:22:07.126Z133.742° SE17.193°2025-05-10 02:24:07.126Z100.665° ESE
5 mins2025-05-10 03:58:07.126Z242.562° WSW2025-05-10 04:00:07.126Z181.772° SSW44.29°2025-05-10 04:03:07.126Z74.042° E
5 mins2025-05-10 05:37:07.126Z287.16° WNW2025-05-10 05:39:07.126Z343.959° N38.064°2025-05-10 05:42:07.126Z70.669° E
6 mins2025-05-10 07:16:07.126Z292.252° WNW2025-05-10 07:18:07.126Z326.081° NNW42.196°2025-05-10 07:22:07.126Z99.963° ESE
5 mins2025-05-10 08:55:07.126Z264.062° W2025-05-10 08:57:07.126Z216.892° SW27.899°2025-05-10 09:00:07.126Z150.813° SSE
|